Location: Allen Fire Department Station 4
(33.1073°N, 96.6988°W)
Time: 15:20:51
(UTC+00:00)

Aurora 2 Rocket - Pass Details

Date: 06 July 2022
Orbit: 389 x 1718 km, 25.0° (Epoch: 06 August)

Event Time Altitude Azimuth Distance (km) Brightness Sun altitude
Rises 03:45:06 0° 254° (WSW) 4,905 7.5 -21.5°
Reaches altitude 10° 03:48:46 10° 249° (WSW) 3,815 6.8 -22.0°
Maximum altitude 03:58:12 49° 179° (S) 1,677 4.3 -23.3°
Enters shadow 04:00:11 42° 143° (SE) 1,745 4.3 -23.6°
